Weather History for Vancouver, BC

Change the Weather History Date:

Monday, March 3, 2014

  Actual Average Record
Temperature  
Mean Temperature 40 °F -  
Max Temperature 48 °F 44 °F 55 °F (2005)
Min Temperature 33 °F 34 °F 32 °F (2002)
Degree Days  
Heating Degree Days 24    
Moisture  
Dew Point 41 °F    
Average Humidity 92    
Maximum Humidity 100    
Minimum Humidity 71    
Precipitation  
Precipitation 0.08 in - - ()
Sea Level Pressure  
Sea Level Pressure 29.69 in    
Wind  
Wind Speed 10 mph ()    
Max Wind Speed 16 mph    
Max Gust Speed -    
Visibility 9.2 miles    
Events Rain    
Averages and records for this station are not official NWS values.
T = Trace of Precipitation, MM = Missing Value Source: Averaged Metar Reports

Daily Weather History Graph

Daily Weather History Graph

Search for Another Location

Airport:

Trip Planner

Search our weather history database for the weather conditions in past years. The results will help you decide how hot, cold, wet, or windy it might be!

Date:

Astronomy

Mar. 03, 2014 Rise Set
Actual Time 6:50 AM PST 5:59 PM PST
Civil Twilight 6:18 AM PST 6:31 PM PST
Nautical Twilight 5:42 AM PST 7:07 PM PST
Astronomical Twilight 5:05 AM PST 7:44 PM PST
Moon 7:45 AM PST (3/3) 9:28 PM PST (3/3)
Length of Visible Light 12h 12m
Length of Day
11h 08m
Waxing Crescent, 8% of the Moon is Illuminated
Mar 3
Waxing Crescent
Mar 8
First Quarter
Mar 16
Full
Mar 23
Last Quarter
Mar 30
New

Hourly Weather History & Observations

Time (PST) Temp. Windchill Dew Point Humidity Pressure Visibility Wind Dir Wind Speed Gust Speed Precip Events Conditions
12:00 AM 37.4 °F 29.8 °F 35.6 °F 93% 29.66 in 8.0 mi East 11.5 mph - N/A   Overcast
1:00 AM 37.4 °F 29.3 °F 35.6 °F 93% 29.68 in 8.0 mi ENE 12.7 mph - N/A   Overcast
2:00 AM 39.2 °F 31.6 °F 37.4 °F 93% 29.69 in 8.0 mi ENE 12.7 mph - N/A   Overcast
2:45 AM 39.2 °F 32.5 °F 37.4 °F 93% 29.68 in 6.0 mi ENE 10.4 mph - N/A Rain Light Rain
3:00 AM 39.2 °F 31.6 °F 37.4 °F 93% 29.68 in 6.0 mi ENE 12.7 mph - N/A Rain Light Rain
3:51 AM 39.2 °F 32.0 °F 37.4 °F 93% 29.67 in 6.0 mi East 11.5 mph - N/A Rain Light Rain
4:00 AM 39 °F - 39 °F 98% 29.68 in 6 mi East 11.5 mph - - Rain Light Rain
4:00 AM 39.2 °F 32.0 °F 39.2 °F 100% 29.67 in 6.0 mi East 11.5 mph - N/A Rain Light Rain
4:12 AM 39.2 °F 32.0 °F 39.2 °F 100% 29.67 in 8.0 mi East 11.5 mph - N/A   Overcast
4:51 AM 39.2 °F 32.0 °F 39.2 °F 100% 29.66 in 8.0 mi East 11.5 mph - N/A   Overcast
5:00 AM 39.2 °F 32.0 °F 39.2 °F 100% 29.66 in 8.0 mi East 11.5 mph - N/A   Overcast
6:00 AM 41.0 °F 33.9 °F 39.2 °F 93% 29.65 in 8.0 mi East 12.7 mph - N/A   Overcast
6:13 AM 41.0 °F 34.3 °F 39.2 °F 93% 29.65 in 6.0 mi East 11.5 mph - N/A Rain Light Rain
6:28 AM 41.0 °F 34.3 °F 41.0 °F 100% 29.64 in 5.0 mi East 11.5 mph - N/A   Light Drizzle
6:37 AM 41.0 °F 34.7 °F 41.0 °F 100% 29.64 in 3.0 mi East 10.4 mph - N/A Rain Light Rain
7:00 AM 42.8 °F 37.0 °F 41.0 °F 93% 29.63 in 5.0 mi East 10.4 mph - N/A Rain Light Rain
7:17 AM 42.8 °F 36.6 °F 41.0 °F 93% 29.63 in 1.5 mi East 11.5 mph - N/A Rain Light Rain
7:42 AM 42.8 °F 36.6 °F 42.8 °F 100% 29.63 in 8.0 mi East 11.5 mph - N/A   Overcast
8:00 AM 42.8 °F 36.6 °F 42.8 °F 100% 29.62 in 8.0 mi East 11.5 mph - N/A   Overcast
8:26 AM 42.8 °F 36.6 °F 42.8 °F 100% 29.62 in 5.0 mi East 11.5 mph - N/A Rain Light Rain
9:00 AM 44.6 °F 38.8 °F 44.6 °F 100% 29.63 in 5.0 mi SE 11.5 mph - N/A Rain Light Rain
10:00 AM 46 °F - 44 °F 92% 29.64 in 10 mi SSE 13.8 mph - - Rain Light Rain
10:00 AM 46.4 °F 40.4 °F 44.6 °F 93% 29.63 in 10.0 mi SSE 13.8 mph - N/A Rain Light Rain
11:00 AM 46.4 °F 40.4 °F 42.8 °F 87% 29.64 in 8.0 mi SE 13.8 mph - N/A Rain Light Rain
11:52 AM 46.4 °F 41.1 °F 44.6 °F 93% 29.65 in 8.0 mi SE 11.5 mph - N/A   Mostly Cloudy
12:00 PM 46.4 °F 41.1 °F 44.6 °F 93% 29.65 in 8.0 mi SE 11.5 mph - N/A   Mostly Cloudy
1:00 PM 46.4 °F 41.1 °F 44.6 °F 93% 29.66 in 10.0 mi East 11.5 mph - N/A   Mostly Cloudy
2:00 PM 46.4 °F 41.9 °F 44.6 °F 93% 29.66 in 12.0 mi East 9.2 mph - N/A   Mostly Cloudy
3:00 PM 48.2 °F - 44.6 °F 87% 29.68 in 12.0 mi East 5.8 mph - N/A   Mostly Cloudy
3:43 PM 48.2 °F - 44.6 °F 87% 29.69 in 12.0 mi SE 5.8 mph - N/A Rain Light Rain Showers
4:00 PM 48 °F - 44 °F 79% 29.70 in 12 mi ESE 5.8 mph - - Rain Light Rain Showers
4:00 PM 48.2 °F - 42.8 °F 82% 29.69 in 12.0 mi SE 4.6 mph - N/A Rain Light Rain Showers
4:40 PM 46.4 °F 44.3 °F 42.8 °F 87% 29.71 in 12.0 mi SE 4.6 mph - N/A   Overcast
5:00 PM 46.4 °F - 42.8 °F 87% 29.72 in 12.0 mi South 2.3 mph - N/A   Overcast
6:00 PM 42.8 °F 39.3 °F 41.0 °F 93% 29.74 in 15.0 mi WSW 5.8 mph - N/A   Mostly Cloudy
7:00 PM 42.8 °F 36.2 °F 41.0 °F 93% 29.77 in 12.0 mi West 12.7 mph - N/A   Overcast
7:28 PM 42.8 °F 35.4 °F 41.0 °F 93% 29.78 in 10.0 mi WNW 15.0 mph - N/A   Overcast
7:51 PM 42.8 °F 35.4 °F 41.0 °F 93% 29.79 in 10.0 mi WNW 15.0 mph - N/A   Overcast
8:00 PM 42.8 °F 35.1 °F 41.0 °F 93% 29.79 in 10.0 mi WNW 16.1 mph - N/A   Overcast
8:34 PM 42.8 °F 35.8 °F 41.0 °F 93% 29.80 in 12.0 mi WNW 13.8 mph - N/A   Overcast
9:00 PM 42.8 °F 35.1 °F 39.2 °F 87% 29.82 in 15.0 mi WNW 16.1 mph - N/A   Overcast
10:00 PM 42 °F - 36 °F 71% 29.86 in 15 mi West 16.1 mph - -   Overcast
10:00 PM 41.0 °F 32.8 °F 35.6 °F 81% 29.85 in 15.0 mi West 16.1 mph - N/A   Overcast
11:00 PM 41.0 °F 34.3 °F 35.6 °F 81% 29.87 in 20.0 mi West 11.5 mph - N/A   Overcast